Regional Weather Roundup
Issued by NWS

Home | Current Version | Previous Version | Graphics & Text | Print | Product List | Glossary On
Versions: 1 2 3 4 5 6 7 8 9 10 11 12 13 14 15 16 17 18 19 20 21 22 23 24 25 26 27 28 29 30 31 32 33 34 35 36 37 38 39 40 41 42 43 44 45 46 47 48 49 50
000
ASUS43 KMPX 290201
RWRMN
WEATHER ROUNDUP FOR MINNESOTA
NATIONAL WEATHER SERVICE TWIN CITIES/CHANHASSEN MN
900 PM CDT FRI AUG 28 2015


NOTE: "FAIR" INDICATES FEW OR NO CLOUDS BELOW 12,000 FEET WITH NO
SIGNIFICANT WEATHER AND/OR OBSTRUCTIONS TO VISIBILITY. N/A MEANS
CURRENT SKY AND/OR WEATHER CONDITIONS ARE NOT AVAILABLE.

MNZ060>063-068>070-290300-
   Twin Cities Metro

CITY           SKY/WX    TMP DP  RH WIND       PRES   REMARKS
TWIN CITIES    PTCLDY    63  56  78 SE8       30.04R
ST PAUL        CLEAR     63  57  81 SE8       30.04R
CRYSTAL        CLEAR     65  57  75 SE8       30.01R
BLAINE         PTCLDY    64  57  77 SE7       30.03R
LAKEVILLE      CLEAR     57  57 100 SE3       30.04R
EDEN PRAIRIE   CLEAR     62  56  80 SE10      30.02R
SOUTH ST PAUL  CLEAR     63  56  79 SE3       30.04R
LAKE ELMO      FAIR      61  57  88 CALM      30.05R
$$
MNZ001>005-007-008-013>017-022>024-027-028-290300-
   Northwest Minnesota

CITY           SKY/WX    TMP DP  RH WIND       PRES   REMARKS
BEMIDJI        CLEAR     71  64  79 SW6       29.93R
HALLOCK        CLEAR     73  70  88 E3        29.83R
ROSEAU         PTCLDY    73  66  78 SW7       29.85S
WARROAD        CLEAR     73  70  88 SW8       29.85S
THIEF RVR FALL PTCLDY   N/A N/A N/A S9        29.88R
CROOKSTON      CLEAR     73  66  78 SW9       29.89R
FOSSTON        CLEAR     68  63  83 S8        29.92S
DETROIT LAKES  CLEAR     70  64  83 S9        29.96R
MOORHEAD       CLEAR     73  64  73 S10G17    29.93R
PARK RAPIDS    FAIR      69  62  78 S8        29.96R
MAHNOMEN       FAIR      69  64  86 S7        29.92R
$$
MNZ006-009>011-018-025>026-290300-
   North Central Minnesota

CITY           SKY/WX    TMP DP  RH WIND       PRES   REMARKS
BAUDETTE       PTCLDY    71  65  81 SW5       29.85R
FLAG ISLAND    CLEAR     70  66  88 CALM      29.83R
INTL FALLS     MOCLDY    73  66  78 SW7       29.86R
WASKISH        CLEAR     72  66  83 SW8       29.88S
BIG FORK       CLEAR     70  64  83 SW7       29.92R
LONGVILLE      PTCLDY    70  63  78 S7        29.95S
GRAND RAPIDS     N/A     70  61  73 S8        29.96R
CRANE LAKE     MOCLDY    72  66  83 S7        29.89S
COOK           MOCLDY    72  63  73 SW8       29.92R
WALKER         FAIR      71  62  74 SW7       29.94R
$$
MNZ012-019>021-037-290300-
   Northeast Minnesota

CITY           SKY/WX    TMP DP  RH WIND       PRES   REMARKS
DULUTH         PTCLDY    69  60  73 SW9       29.99R
ELY            MOCLDY    70  63  78 SW9       29.92S
HIBBING        CLOUDY    71  62  73 S7        29.95R
EVELETH        CLEAR     72  63  73 SW10      29.96R
DULUTH HARBOR  PTCLDY    72  64  78 S12       29.97R
TWO HARBORS    PTCLDY    72  64  78 SW6       29.95R
SILVER BAY     PTCLDY    72  63  73 SW3       29.94R
GRAND MARAIS     N/A     60  57  89 CALM      29.91S
G MARAIS ARPRT PTCLDY    66  59  77 S9        29.95F
$$
MNZ029>031-032-039>041-046>048-054>057-064-290300-
   West Central Minnesota

CITY           SKY/WX    TMP DP  RH WIND       PRES   REMARKS
FERGUS FALLS   CLEAR     68  64  88 S8        29.96R
WHEATON        CLEAR     66  61  82 S10       29.98R
MORRIS         CLEAR     64  63  94 SE6       29.99R
ALEXANDRIA     CLEAR     66  62  87 S9        30.01R
ELBOW LAKE     FAIR      66  63  90 S9        29.98R
WADENA         CLEAR     66  61  82 S6        29.98R
GLENWOOD       CLEAR     64  61  88 S8        30.01S
APPLETON       CLEAR     66  61  82 S3        29.99R
BENSON         CLEAR     64  59  82 S3        30.00R
ORTONVILLE     CLEAR     66  63  88 S5        29.98R
MADISON        CLEAR     63  61  94 SE5       30.00R
WILLMAR        FAIR      63  61  94 SE5       30.03R
$$
MNZ033>034-036-042>043-049>051-058-059-290300-
   Central Minnesota

CITY           SKY/WX    TMP DP  RH WIND       PRES   REMARKS
ST CLOUD       CLEAR     62  60  93 S7        30.01R
SAUK CENTRE    FAIR      62  60  93 S5        30.01R
PAYNESVILLE    CLEAR     65  60  83 SE6       30.02R
AITKIN         CLEAR     70  63  78 S7        29.97R
PINE RIVER     CLEAR     68  63  83 S5        30.01R
BRAINERD       CLEAR     68  62  81 S9        29.99R
STAPLES        CLEAR     66  61  82 S6        29.99R
LONG PRAIRIE   FAIR      63  59  88 S5        30.02R
LITTLE FALLS   CLEAR     64  59  82 S3        30.01R
LITCHFIELD     CLEAR     64  61  88 CALM      30.03R
BUFFALO        CLEAR     64  56  73 S3        30.04R
MAPLE LAKE     CLEAR     63  59  86 CALM      30.04R
$$
MNZ037-044-045-052-053-290300-
   East Central Minnesota

CITY           SKY/WX    TMP DP  RH WIND       PRES   REMARKS
PRINCETON      CLEAR     64  61  88 S5        30.03R
MORA           MOCLDY    64  59  82 S7        30.03R
CAMBRIDGE      CLEAR     68  55  64 S8        30.02R
RUSH CITY      MOCLDY    65  60  82 S5        30.03R
MOOSE LAKE     CLEAR     68  61  77 S8        29.97S
HINCKLEY       FAIR      64  63  94 S6        30.01R
CLOQUET        CLEAR     68  59  73 S8        29.98R
MCGREGOR       PTCLDY    68  63  83 S6        29.98R
$$
MNZ071>073-080-081-089-090-097-098-290300-
   Southwest Minnesota

CITY           SKY/WX    TMP DP  RH WIND       PRES   REMARKS
MONTEVIDEO     CLEAR     64  61  88 S5        30.02R
GRANITE FALLS  PTCLDY    60  58  92 SE7       30.02R
CANBY          CLEAR     64  60  89 S5        30.01R
MARSHALL       CLEAR     63  55  77 S7        30.02S
REDWOOD FALLS  CLEAR     62  58  86 SE7       30.01R
OLIVIA         CLEAR     59  54  82 SE3       30.01S
PIPESTONE      CLEAR     63  57  82 CALM      30.02R
WINDOM         CLOUDY    61  55  82 CALM      30.02R
WORTHINGTON    CLOUDY    61  54  77 E7        30.01S
JACKSON        CLOUDY    61  55  82 E7        30.02R
TRACY          PTCLDY    62  59  90 SE5       30.02R
SLAYTON        CLOUDY    62  58  88 CALM      30.03R
$$
MNZ065>067-074>077-082>085-091>093-290300-
   South Central Minnesota

CITY           SKY/WX    TMP DP  RH WIND       PRES   REMARKS
MANKATO        PTCLDY    61  54  77 NE5       30.02R
ST JAMES       CLOUDY    63  57  82 NE3       30.03R
FAIRMONT       CLOUDY    61  52  72 E6        30.00R
GLENCOE        CLEAR     62  58  88 CALM      30.02R
FARIBAULT      CLEAR     59  55  88 E5        30.02S
OWATONNA       CLEAR     57  55  94 E7        30.02R
WASECA         PTCLDY    59  55  88 MISG      30.02S
ALBERT LEA     PTCLDY    61  57  88 E8        30.00R
$$
MNZ078>079-086>088-094>096-290300-
   Southeast Minnesota

CITY           SKY/WX    TMP DP  RH WIND       PRES   REMARKS
ROCHESTER      PTCLDY    58  55  90 E14       30.03R
RED WING       CLEAR     61  57  88 SE5       30.03R
STANTON        CLEAR     60  56  87 E3        30.02R
DODGE CENTER   PTCLDY    57  55  94 E5        30.03R
WINONA         MOCLDY    59  55  88 SE7       30.04F
AUSTIN         MOCLDY    61  55  82 E14       29.99S
PRESTON        CLOUDY    57  55  94 E14       30.04R FOG
$$
ABBREVIATIONS USED IN REMARKS
   TC - TEMPERATURES IN CELSIUS
  WCI - WIND CHILL INDEX
   HX - HEAT INDEX
  VSB - VISIBILITY
$$



USA.gov is the U.S. government's official web portal to all federal, state and local government web resources and services.